Regional Weather Roundup
Issued by NWS

Home | Current Version | Previous Version | Graphics & Text | Print | Product List | Glossary On
Versions: 1 2 3 4 5 6 7 8 9 10 11 12 13 14 15 16 17 18 19 20 21 22 23 24 25 26 27 28 29 30 31 32 33 34 35 36 37 38 39 40 41 42 43 44 45 46 47 48 49 50
000
ASUS43 KLSX 041407
RWRMO

WEATHER SUMMARY FOR MISSOURI
NATIONAL WEATHER SERVICE SPRINGFIELD MO
800 AM CST WED MAR 04 2015

NOTE: "FAIR" INDICATES FEW OR NO CLOUDS BELOW 12,000 FEET WITH NO
       SIGNIFICANT WEATHER AND/OR OBSTRUCTIONS TO VISIBILITY.
       CURRENT SKY AND/OR WEATHER CONDITIONS ARE NOT AVAILABLE FOR
       CHILLICOTHE AND FARMINGTON.

MOZ001>031-035>038-043-044-053-054-041500-
...NORTHERN AND WESTERN MISSOURI...

CITY           SKY/WX    TMP DP  RH WIND       PRES   REMARKS
KANSAS CTY INT PTSUNNY   19   9  65 N14       30.25R WCI   6
KANSAS C DTWN  CLOUDY    21   9  59 N10       30.28R WCI  10
LEE`S SUMMIT   CLOUDY    20   7  57 N17       30.26R WCI   5
ST JOSEPH      MOSUNNY   18  10  71 N13       30.30R WCI   5
CHILLICOTHE      N/A     20   5  52 N10G17    30.27R WCI   9

$$
MOZ066>068-077>081-088>096-101>105-041500-
...SOUTHWEST MISSOURI...

CITY           SKY/WX    TMP DP  RH WIND       PRES   REMARKS
SPRINGFIELD    FRZ RAIN  28  23  81 N20       30.09S WCI  15
JOPLIN         LGT SNOW  24  20  84 N13G25    30.17R VSB 1   WCI  12

$$
MOZ032>034-039>042-045>050-055>058-069>072-041500-
...CENTRAL MISSOURI...

CITY           SKY/WX    TMP DP  RH WIND       PRES   REMARKS
COLUMBIA       LGT SNOW  19  14  81 N14       30.21R VSB 1   WCI   6
JEFFERSON CITY SNOW      21  17  84 NW13      30.23R VSB 1/2 WCI   9
ROLLA          CLOUDY    22  11  62 N18       30.11R WCI   7
SEDALIA        CLOUDY    21  10  62 N15G29    30.22R WCI   8
WHITEMAN AFB   FLURRIES  19   9  63 N21       30.20R WCI   3
WARRENSBURG    CLOUDY    21  10  63 N14G22    30.25R WCI   8
OSAGE BEACH    CLOUDY    27  18  69 N12G17    30.15R WCI  16

$$
MOZ051-052-059>065-041500-
...EAST CENTRAL MISSOURI...

CITY           SKY/WX    TMP DP  RH WIND       PRES   REMARKS
ST LOUIS INTL  CLOUDY    22  10  60 N15G25    30.15R WCI   9
SPIRIT OF STL  CLOUDY    22  10  60 N12       30.17R WCI  10
ST CHARLES     CLOUDY    20   9  62 N13       30.17R WCI   7

$$
MOZ072>076-082>087-097>100-106>115-041500-
...SOUTH CENTRAL AND SOUTHEAST MISSOURI...

CITY           SKY/WX    TMP DP  RH WIND       PRES   REMARKS
CAPE GIRARDEAU LGT RAIN  35  32  88 N13       30.04R FOG     WCI  26
FARMINGTON     CLOUDY    28  25  86 N14       30.10R WCI  17
POPLAR BLUFF   LGT RAIN  35  30  82 N15       30.02R WCI  25
WEST PLAINS    RAIN      33  30  88 N8        30.04R FOG     WCI  26

$$



USA.gov is the U.S. government's official web portal to all federal, state and local government web resources and services.